TimeMDT,TemperatureF,Dew PointF,Humidity,Sea Level PressureIn,VisibilityMPH,Wind Direction,Wind SpeedMPH,Gust SpeedMPH,PrecipitationIn,Events,Conditions,WindDirDegrees,DateUTC
12:53 AM,64.0,21.0,19,29.88,10.0,ESE,10.4,-,N/A,,Clear,120,2012-09-06 06:53:00
1:53 AM,64.0,21.9,20,29.88,10.0,ESE,12.7,-,N/A,,Clear,120,2012-09-06 07:53:00
2:53 AM,59.0,23.0,25,29.88,10.0,SE,8.1,-,N/A,,Clear,130,2012-09-06 08:53:00
3:53 AM,62.1,21.0,21,29.88,10.0,East,6.9,-,N/A,,Clear,80,2012-09-06 09:53:00
4:53 AM,59.0,24.1,26,29.89,10.0,Calm,Calm,-,N/A,,Clear,0,2012-09-06 10:53:00
5:53 AM,59.0,23.0,25,29.91,10.0,ESE,15.0,-,N/A,,Clear,120,2012-09-06 11:53:00
6:53 AM,57.0,25.0,29,29.93,10.0,SE,9.2,-,N/A,,Clear,130,2012-09-06 12:53:00
7:53 AM,63.0,24.1,23,29.94,10.0,SE,10.4,-,N/A,,Clear,130,2012-09-06 13:53:00
8:53 AM,70.0,21.9,16,29.92,10.0,ESE,11.5,-,N/A,,Clear,120,2012-09-06 14:53:00
9:53 AM,75.0,21.9,14,29.93,10.0,ESE,12.7,-,N/A,,Clear,120,2012-09-06 15:53:00
10:53 AM,77.0,24.1,14,29.91,10.0,SE,9.2,-,N/A,,Clear,140,2012-09-06 16:53:00
11:53 AM,81.0,23.0,12,29.89,10.0,Variable,3.5,-,N/A,,Clear,0,2012-09-06 17:53:00
12:53 PM,84.9,21.0,10,29.87,10.0,ESE,9.2,-,N/A,,Clear,120,2012-09-06 18:53:00
1:53 PM,86.0,24.1,10,29.85,10.0,West,10.4,-,N/A,,Clear,280,2012-09-06 19:53:00
2:53 PM,87.1,28.9,12,29.84,10.0,West,9.2,-,N/A,,Clear,280,2012-09-06 20:53:00
3:53 PM,88.0,21.9,9,29.81,10.0,NW,9.2,-,N/A,,Mostly Cloudy,320,2012-09-06 21:53:00
4:53 PM,91.9,30.0,11,29.78,10.0,West,9.2,-,N/A,,Clear,280,2012-09-06 22:53:00
5:53 PM,89.1,32.0,13,29.78,10.0,West,6.9,-,N/A,,Clear,280,2012-09-06 23:53:00
6:53 PM,87.1,37.9,18,29.78,10.0,West,6.9,-,N/A,,Clear,280,2012-09-07 00:53:00
7:53 PM,82.9,37.9,20,29.77,10.0,West,3.5,-,N/A,,Clear,280,2012-09-07 01:53:00
8:53 PM,78.8,35.6,21,29.99,10.0,NE,3.5,-,N/A,,Mostly Cloudy,40,2012-09-07 02:53:00
9:53 PM,78.1,33.1,19,29.78,10.0,Calm,Calm,-,N/A,,Scattered Clouds,0,2012-09-07 03:53:00
10:53 PM,79.0,39.9,25,29.83,10.0,WNW,18.4,-,0.00,,Overcast,300,2012-09-07 04:53:00
11:00 PM,78.8,42.8,28,30.07,10.0,West,21.9,28.8,N/A,,Overcast,270,2012-09-07 05:00:00
11:53 PM,73.0,46.9,39,29.90,10.0,NW,25.3,31.1,0.00,,Clear,320,2012-09-07 05:53:00